Location: Hamayl? Da??
(36.7028°N, 30.1716°E)
Time: 17:15:06
(UTC+00:00)

Cosmos 1741 Rocket - Pass Details

Date: 04 August 2024
Orbit: 759 x 779 km, 74.0° (Epoch: 12 September)

Event Time Altitude Azimuth Distance (km) Brightness Sun altitude
Rises 20:02:04 0° 342° (NNW) 3,241 8.3 -29.0°
Reaches altitude 10° 20:04:27 10° 344° (NNW) 2,308 7.3 -29.2°
Enters shadow 20:08:43 60° 354° (N) 874 4.4 -29.7°
